{"data":{"norad_id":53528,"epoch":"2026-09-20T14:11:54.702240Z","epoch_age_seconds":70302,"freshness":"FRESH","line1":"1 53528U 22101B   26263.59160535  .00000324  00000+0  38440-4 0  9993","line2":"2 53528  53.1602 278.5091 0001117  85.6496 274.4623 15.08841513225588","mean_motion":15.08841513,"eccentricity":0.0001117,"inclination_deg":53.1602,"raan_deg":278.5091,"arg_perigee_deg":85.6496,"mean_anomaly_deg":274.4623,"bstar":3.844e-5,"rev_number":22558,"period_min":95.437458977178,"perigee_km":538.96603760938,"apogee_km":540.51149105513,"semimajor_km":6917.8757643323,"source":"CELESTRAK","updated_at":"2026-09-21T09:00:32.897886Z"}}